�N����,����,�~����,�C��,���x,�C��,����,���ϕ���,�ő�u�ԕ���,�ő厞����,���˗�,�I�_���x,�n�����x,�ő啗���N��,DTYPE
"23/05/17","00:10",0.0,16.4,82.1,1009.7,309.0,1.1,1.7,313.7,0.00,13.4,18.5,"00:06:48",1
"23/05/17","00:20",0.0,16.2,82.8,1010.0,316.4,1.1,1.7,307.7,0.00,13.3,18.6,"00:16:56",1
"23/05/17","00:30",0.0,15.8,83.8,1010.2,319.6,1.1,2.0,322.9,0.00,13.1,18.4,"00:24:56",1
"23/05/17","00:40",0.0,15.6,84.8,1010.2,322.3,1.0,1.3,318.4,0.00,13.1,18.4,"00:32:00",1
"23/05/17","00:50",0.0,15.4,85.5,1010.2,306.9,0.7,1.3,310.0,0.00,13.0,18.3,"00:45:04",1
"23/05/17","01:00",0.0,15.3,86.2,1010.0,328.7,1.2,1.8,321.4,0.00,13.0,18.3,"00:50:02",1
"23/05/17","01:10",0.0,15.2,86.8,1010.0,326.4,1.5,2.0,326.3,0.00,13.1,18.2,"01:09:36",1
"23/05/17","01:20",0.0,15.3,87.2,1010.4,322.4,1.5,2.2,324.0,0.00,13.2,18.3,"01:12:08",1
"23/05/17","01:30",0.0,15.3,87.4,1010.2,312.7,1.3,1.9,311.1,0.00,13.3,18.3,"01:25:54",1
"23/05/17","01:40",0.0,15.4,87.5,1010.4,294.5,1.2,2.0,322.3,0.00,13.4,18.2,"01:35:04",1
"23/05/17","01:50",0.0,15.4,87.3,1010.4,304.2,1.3,2.0,318.8,0.00,13.3,18.0,"01:49:28",1
"23/05/17","02:00",0.0,15.4,87.3,1010.2,333.0,1.2,1.6,334.1,0.00,13.3,17.9,"01:52:40",1
"23/05/17","02:10",0.0,15.0,87.5,1010.2,315.3,1.3,2.1,313.3,0.00,13.0,18.1,"02:09:04",1
"23/05/17","02:20",0.0,15.1,87.5,1010.4,310.8,1.3,1.9,321.7,0.00,13.1,17.9,"02:12:48",1
"23/05/17","02:30",0.0,15.0,87.5,1010.4,311.7,0.7,1.3,317.7,0.00,13.0,17.9,"02:20:56",1
"23/05/17","02:40",0.0,14.9,87.8,1010.7,328.1,1.3,1.8,322.3,0.00,12.9,17.9,"02:38:16",1
"23/05/17","02:50",0.0,14.7,88.3,1010.7,328.6,1.3,1.8,325.6,0.00,12.8,17.8,"02:45:20",1
"23/05/17","03:00",0.0,14.7,88.6,1010.4,294.2,1.2,1.7,323.1,0.00,12.9,17.7,"02:50:40",1
"23/05/17","03:10",0.0,14.7,88.8,1010.4,294.8,1.1,2.0,311.0,0.00,12.9,17.6,"03:00:32",1
"23/05/17","03:20",0.0,14.6,88.9,1010.9,311.2,1.1,1.6,333.0,0.00,12.8,17.8,"03:19:52",1
"23/05/17","03:30",0.0,14.6,89.1,1010.9,331.9,1.3,1.7,312.9,0.00,12.9,17.7,"03:24:56",1
"23/05/17","03:40",0.0,14.3,89.3,1010.9,316.4,1.1,1.6,333.5,0.00,12.6,17.4,"03:30:32",1
"23/05/17","03:50",0.0,14.3,89.6,1010.9,304.0,1.2,1.8,310.5,0.00,12.7,17.4,"03:45:20",1
"23/05/17","04:00",0.0,14.1,89.8,1010.9,306.5,1.0,1.4,307.3,0.00,12.5,17.6,"03:52:08",1
"23/05/17","04:10",0.0,14.1,90.1,1010.9,319.4,1.2,1.7,317.2,0.00,12.5,17.6,"04:03:20",1
"23/05/17","04:20",0.0,14.0,90.2,1011.2,325.3,1.1,1.7,322.8,0.00,12.5,17.5,"04:19:36",1
"23/05/17","04:30",0.0,13.8,90.3,1010.9,287.9,0.5,1.1,308.5,0.00,12.3,17.5,"04:20:08",1
"23/05/17","04:40",0.0,13.8,90.7,1011.4,318.2,1.3,2.0,318.8,0.00,12.3,17.3,"04:36:16",1
"23/05/17","04:50",0.0,13.7,90.9,1011.4,326.4,1.2,1.6,319.4,0.00,12.3,17.4,"04:48:10",1
"23/05/17","05:00",0.0,13.7,91.2,1011.2,310.4,1.3,1.8,325.5,0.00,12.3,17.2,"04:58:00",1
"23/05/17","05:10",0.0,13.6,91.4,1011.2,300.7,1.2,1.9,323.2,0.00,12.3,17.4,"05:08:08",1
"23/05/17","05:20",0.0,13.6,91.7,1011.4,323.7,1.2,1.8,321.3,0.00,12.3,17.4,"05:14:02",1
"23/05/17","05:30",0.0,13.5,91.8,1011.4,316.9,1.3,1.7,322.2,0.00,12.2,17.1,"05:20:16",1
"23/05/17","05:40",0.0,13.4,92.1,1011.9,320.0,1.5,2.0,312.8,0.00,12.2,17.0,"05:38:54",1
"23/05/17","05:50",0.0,13.4,92.2,1011.6,311.5,1.3,1.7,316.6,0.00,12.2,17.0,"05:40:08",1
"23/05/17","06:00",0.0,13.6,92.5,1011.6,323.6,1.3,1.6,323.0,0.00,12.4,17.1,"05:51:04",1
"23/05/17","06:10",0.0,13.4,92.6,1011.6,293.8,0.8,1.2,313.0,0.00,12.3,16.9,"06:00:16",1
"23/05/17","06:20",0.0,13.5,92.8,1011.9,308.5,1.2,2.2,320.2,0.00,12.4,17.0,"06:14:00",1
"23/05/17","06:30",0.0,13.9,93.0,1012.1,328.2,1.2,1.8,325.5,0.01,12.8,16.9,"06:29:04",1
"23/05/17","06:40",0.0,14.2,93.0,1011.9,324.9,1.3,1.6,329.2,0.01,13.1,17.0,"06:30:08",1
"23/05/17","06:50",0.0,14.7,93.2,1011.9,308.6,1.0,1.3,311.6,0.02,13.7,16.8,"06:43:16",1
"23/05/17","07:00",0.0,15.5,93.1,1012.1,313.2,0.8,1.4,323.5,0.04,14.4,16.9,"06:59:40",1
"23/05/17","07:10",0.0,15.8,93.1,1011.9,326.1,1.2,1.6,323.1,0.06,14.7,16.9,"07:00:48",1
"23/05/17","07:20",0.0,16.7,92.9,1012.1,318.8,1.0,1.3,318.8,0.07,15.6,16.7,"07:14:40",1
"23/05/17","07:30",0.0,17.4,92.4,1012.3,328.8,0.8,1.4,330.9,0.09,16.2,16.8,"07:23:28",1
"23/05/17","07:40",0.0,18.0,91.1,1012.8,342.8,0.7,1.3,330.0,0.12,16.6,16.8,"07:38:24",1
"23/05/17","07:50",0.0,18.8,89.1,1012.6,329.9,0.6,1.1,326.3,0.14,17.0,16.9,"07:45:20",1
"23/05/17","08:00",0.0,19.5,86.9,1012.3,330.3,0.3,0.9,293.0,0.16,17.3,16.7,"07:51:44",1
"23/05/17","08:10",0.0,20.2,83.1,1012.1,298.6,0.5,1.4,330.6,0.18,17.3,16.8,"08:00:02",1
"23/05/17","08:20",0.0,20.7,78.0,1012.3,335.0,0.7,1.6,336.9,0.21,16.8,16.9,"08:17:44",1
"23/05/17","08:30",0.0,21.4,73.9,1012.1,315.1,0.6,1.6,339.2,0.23,16.6,16.7,"08:23:52",1
"23/05/17","08:40",0.0,21.9,70.3,1011.6,314.2,0.6,1.3,313.7,0.26,16.3,16.7,"08:39:28",1
"23/05/17","08:50",0.0,22.3,67.7,1011.4,331.2,0.6,1.6,346.3,0.28,16.1,16.7,"08:47:12",1
"23/05/17","09:00",0.0,22.6,67.8,1011.2,302.7,0.6,1.7,335.5,0.30,16.4,16.8,"08:53:12",1
"23/05/17","09:10",0.0,22.7,66.6,1010.9,295.6,0.7,2.2,300.0,0.33,16.2,17.0,"09:06:00",1
"23/05/17","09:20",0.0,22.9,66.0,1010.9,279.1,0.7,1.7,219.7,0.35,16.3,16.9,"09:17:20",1
"23/05/17","09:30",0.0,23.3,64.2,1010.9,277.5,0.5,1.2,56.2,0.37,16.2,16.9,"09:20:02",1
"23/05/17","09:40",0.0,24.1,62.9,1010.2,153.7,0.6,1.9,124.3,0.39,16.6,17.1,"09:38:00",1
"23/05/17","09:50",0.0,24.4,62.5,1010.2,158.3,0.8,1.9,124.0,0.41,16.8,17.0,"09:43:52",1
"23/05/17","10:00",0.0,24.9,62.1,1010.2,160.1,0.8,2.7,142.7,0.43,17.2,17.1,"09:52:24",1
"23/05/17","10:10",0.0,25.3,60.2,1010.2,236.5,0.8,2.7,239.4,0.45,17.1,16.9,"10:04:48",1
"23/05/17","10:20",0.0,25.2,59.6,1010.0,168.4,1.3,2.5,177.7,0.47,16.8,17.0,"10:11:44",1
"23/05/17","10:30",0.0,25.9,60.8,1010.4,151.8,1.2,2.2,203.3,0.48,17.8,17.2,"10:22:16",1
"23/05/17","10:40",0.0,26.0,60.4,1010.4,192.6,1.7,3.2,229.4,0.50,17.8,17.3,"10:33:36",1
"23/05/17","10:50",0.0,26.1,58.8,1010.2,166.0,1.3,2.7,186.1,0.51,17.5,17.3,"10:48:08",1
"23/05/17","11:00",0.0,27.3,58.3,1010.9,145.3,0.7,2.0,184.1,0.53,18.4,17.4,"10:51:12",1
"23/05/17","11:10",0.0,27.1,56.2,1010.7,172.8,1.5,2.7,183.1,0.54,17.7,17.6,"11:08:32",1
"23/05/17","11:20",0.0,27.2,55.9,1010.4,191.0,1.3,3.1,228.0,0.55,17.7,17.6,"11:11:04",1
"23/05/17","11:30",0.0,27.7,55.9,1010.4,172.9,1.5,3.4,195.6,0.56,18.1,17.7,"11:25:28",1
"23/05/17","11:40",0.0,27.8,55.3,1010.4,146.8,1.6,3.3,221.2,0.56,18.1,17.8,"11:31:44",1
"23/05/17","11:50",0.0,28.3,56.2,1010.2,150.1,1.3,3.1,164.7,0.57,18.8,17.9,"11:49:20",1
"23/05/17","12:00",0.0,28.3,55.0,1010.2,154.5,1.7,3.2,179.1,0.57,18.4,18.1,"11:53:04",1
"23/05/17","12:10",0.0,28.4,55.2,1010.2,149.7,2.0,4.2,173.7,0.58,18.6,18.2,"12:04:48",1
"23/05/17","12:20",0.0,28.8,54.9,1009.7,129.2,1.8,3.1,100.3,0.58,18.9,18.2,"12:16:56",1
"23/05/17","12:30",0.0,29.3,54.5,1010.0,136.3,1.7,3.6,172.5,0.59,19.2,18.1,"12:28:00",1
"23/05/17","12:40",0.0,29.5,52.5,1009.5,124.6,2.0,3.7,116.2,0.59,18.8,18.3,"12:34:48",1
"23/05/17","12:50",0.0,30.3,53.3,1009.7,156.7,1.6,4.1,111.1,0.59,19.8,18.2,"12:47:12",1
"23/05/17","13:00",0.0,30.4,49.0,1009.3,136.0,2.0,4.1,127.8,0.58,18.5,18.5,"12:52:56",1
"23/05/17","13:10",0.0,30.8,49.4,1009.5,133.7,2.0,3.6,123.7,0.58,19.0,18.6,"13:03:36",1
"23/05/17","13:20",0.0,31.1,48.4,1008.8,137.6,1.8,3.6,122.9,0.57,19.0,18.6,"13:16:08",1
"23/05/17","13:30",0.0,31.3,47.4,1009.3,144.8,2.0,5.7,103.2,0.57,18.8,18.8,"13:22:56",1
"23/05/17","13:40",0.0,31.5,46.0,1009.0,138.1,1.7,4.1,187.9,0.57,18.5,19.0,"13:34:32",1
"23/05/17","13:50",0.0,31.5,44.4,1009.5,141.0,2.1,3.4,172.0,0.56,18.0,18.9,"13:49:12",1
"23/05/17","14:00",0.0,31.8,44.9,1009.0,172.2,2.2,4.5,176.6,0.55,18.4,19.0,"13:59:44",1
"23/05/17","14:10",0.0,32.1,43.5,1009.0,174.3,2.0,4.3,202.8,0.54,18.2,19.2,"14:01:36",1
"23/05/17","14:20",0.0,31.9,42.8,1009.3,184.7,2.3,4.0,179.3,0.53,17.7,19.2,"14:15:04",1
"23/05/17","14:30",0.0,32.0,42.8,1008.8,151.5,2.0,3.4,156.0,0.51,17.8,19.2,"14:25:12",1
"23/05/17","14:40",0.0,31.9,44.1,1009.3,174.0,2.3,4.4,154.6,0.50,18.2,19.5,"14:35:36",1
"23/05/17","14:50",0.0,31.9,41.8,1008.8,178.0,2.6,4.2,126.9,0.48,17.4,19.5,"14:44:16",1
"23/05/17","15:00",0.0,32.4,41.0,1008.6,167.1,1.6,3.2,161.0,0.47,17.5,19.6,"14:56:16",1
"23/05/17","15:10",0.0,32.3,43.7,1008.6,152.9,2.3,4.3,180.6,0.45,18.4,19.8,"15:09:20",1
"23/05/17","15:20",0.0,32.0,41.5,1008.3,166.9,2.5,4.0,179.7,0.44,17.3,19.7,"15:18:32",1
"23/05/17","15:30",0.0,32.2,42.4,1008.1,171.9,2.3,4.2,177.7,0.41,17.9,19.7,"15:21:44",1
"23/05/17","15:40",0.0,31.8,42.7,1008.3,166.6,3.0,5.8,140.3,0.39,17.6,19.8,"15:36:56",1
"23/05/17","15:50",0.0,31.8,44.8,1008.1,158.2,2.7,4.4,136.3,0.37,18.4,19.9,"15:47:12",1
"23/05/17","16:00",0.0,31.7,43.5,1008.1,182.7,2.8,4.4,182.0,0.35,17.8,20.2,"15:56:40",1
"23/05/17","16:10",0.0,31.6,44.5,1007.8,161.3,2.2,4.4,179.1,0.33,18.1,20.2,"16:08:24",1
"23/05/17","16:20",0.0,31.7,43.7,1007.6,164.8,2.3,4.4,203.1,0.30,17.9,20.1,"16:15:36",1
"23/05/17","16:30",0.0,31.7,42.6,1007.6,170.9,2.7,4.7,192.0,0.29,17.5,20.3,"16:25:44",1
"23/05/17","16:40",0.0,31.5,43.6,1008.1,168.1,2.7,4.2,148.2,0.26,17.7,20.3,"16:30:32",1
"23/05/17","16:50",0.0,31.5,42.5,1007.6,165.7,2.5,4.3,170.1,0.24,17.3,20.4,"16:43:12",1
"23/05/17","17:00",0.0,31.4,43.9,1007.8,181.0,2.5,4.7,207.3,0.22,17.7,20.4,"16:50:48",1
"23/05/17","17:10",0.0,31.5,44.1,1007.6,179.4,1.8,3.1,153.9,0.20,17.9,20.5,"17:02:16",1
"23/05/17","17:20",0.0,31.5,43.3,1007.6,175.7,1.7,3.2,176.2,0.18,17.6,20.4,"17:17:12",1
"23/05/17","17:30",0.0,31.5,42.9,1007.8,189.2,1.6,3.2,194.1,0.15,17.4,20.7,"17:23:44",1
"23/05/17","17:40",0.0,31.4,43.8,1007.8,194.8,1.7,3.1,233.2,0.13,17.7,20.8,"17:30:08",1
"23/05/17","17:50",0.0,31.1,44.2,1007.6,177.6,1.8,3.2,221.3,0.11,17.5,20.6,"17:40:40",1
"23/05/17","18:00",0.0,30.8,43.8,1007.8,196.6,1.7,3.2,213.4,0.07,17.1,20.9,"17:50:08",1
"23/05/17","18:10",0.0,30.7,44.7,1007.4,193.7,1.1,2.4,207.7,0.03,17.3,20.7,"18:06:00",1
"23/05/17","18:20",0.0,30.6,42.4,1007.6,259.8,1.0,1.9,244.7,0.02,16.4,20.5,"18:12:08",1
"23/05/17","18:30",0.0,30.4,42.3,1007.6,266.4,0.7,2.1,252.8,0.02,16.2,20.6,"18:28:24",1
"23/05/17","18:40",0.0,29.9,43.6,1007.6,270.5,1.0,2.7,296.3,0.02,16.2,20.7,"18:35:44",1
"23/05/17","18:50",0.0,29.3,44.5,1007.1,296.5,1.2,2.5,357.9,0.01,16.0,20.7,"18:48:16",1
"23/05/17","19:00",0.0,28.9,48.3,1006.9,319.4,1.0,1.7,250.3,0.01,16.9,20.8,"18:50:40",1
"23/05/17","19:10",0.0,27.7,51.4,1006.7,334.9,1.1,2.0,342.3,0.00,16.8,20.6,"19:00:40",1
"23/05/17","19:20",0.0,26.9,55.1,1007.4,323.6,1.5,2.4,313.4,0.00,17.2,20.7,"19:11:12",1
"23/05/17","19:30",0.0,26.3,56.4,1007.1,310.0,1.3,2.1,312.9,0.00,17.0,20.7,"19:27:12",1
"23/05/17","19:40",0.0,25.8,58.9,1008.1,323.7,1.5,2.0,306.0,0.00,17.2,20.5,"19:32:24",1
"23/05/17","19:50",0.0,25.0,58.1,1008.1,341.2,1.7,2.5,321.9,0.00,16.2,20.5,"19:42:40",1
"23/05/17","20:00",0.0,24.6,61.2,1008.1,349.1,1.5,2.0,350.9,0.00,16.7,20.6,"19:54:16",1
"23/05/17","20:10",0.0,24.1,60.8,1008.6,348.6,1.3,2.1,348.3,0.00,16.1,20.5,"20:03:04",1
"23/05/17","20:20",0.0,23.7,61.4,1008.8,304.0,0.6,1.4,267.5,0.00,15.9,20.5,"20:12:24",1
"23/05/17","20:30",0.0,23.6,61.0,1009.0,301.9,1.3,2.4,311.4,0.00,15.7,20.4,"20:26:56",1
"23/05/17","20:40",0.0,23.4,64.0,1009.5,337.0,1.7,2.2,343.2,0.00,16.2,20.4,"20:33:04",1
"23/05/17","20:50",0.0,22.8,66.1,1009.3,334.2,1.8,2.7,321.9,0.00,16.2,20.5,"20:49:12",1
"23/05/17","21:00",0.0,22.4,66.7,1009.5,318.9,2.0,2.7,325.0,0.00,15.9,20.3,"20:56:24",1
"23/05/17","21:10",0.0,22.2,66.7,1009.7,300.2,1.5,2.5,312.8,0.00,15.8,20.3,"21:02:00",1
"23/05/17","21:20",0.0,21.8,67.2,1010.0,311.0,1.0,2.0,318.7,0.00,15.5,20.1,"21:19:28",1
"23/05/17","21:30",0.0,21.6,68.1,1010.0,307.4,1.5,2.4,319.1,0.00,15.5,20.3,"21:24:32",1
"23/05/17","21:40",0.0,21.3,68.6,1010.2,352.6,0.6,1.9,320.5,0.00,15.3,20.2,"21:30:16",1
"23/05/17","21:50",0.0,21.1,69.6,1010.4,316.8,0.6,1.9,343.0,0.00,15.4,20.2,"21:40:02",1
"23/05/17","22:00",0.0,20.6,71.2,1010.7,310.6,1.3,2.5,342.5,0.00,15.2,19.9,"21:51:04",1
"23/05/17","22:10",0.0,20.4,72.5,1010.4,318.4,1.2,2.2,323.3,0.00,15.3,20.0,"22:06:32",1
"23/05/17","22:20",0.0,20.2,73.2,1010.7,303.8,1.0,2.0,322.4,0.00,15.3,20.0,"22:19:04",1
"23/05/17","22:30",0.0,20.3,73.4,1010.7,324.2,1.7,2.9,318.0,0.00,15.4,19.9,"22:27:44",1
"23/05/17","22:40",0.0,20.2,72.9,1010.4,307.5,1.2,2.1,327.9,0.00,15.2,19.9,"22:32:16",1
"23/05/17","22:50",0.0,20.0,73.2,1010.9,316.0,1.5,2.2,337.0,0.00,15.1,19.8,"22:47:20",1
"23/05/17","23:00",0.0,19.9,73.9,1010.7,324.7,1.2,2.0,312.8,0.00,15.2,19.8,"22:52:24",1
"23/05/17","23:10",0.0,19.6,74.8,1010.9,312.4,1.5,2.2,309.7,0.00,15.0,19.5,"23:04:24",1
"23/05/17","23:20",0.0,19.5,75.2,1010.9,299.5,1.3,1.8,305.4,0.00,15.0,19.7,"23:14:32",1
"23/05/17","23:30",0.0,19.4,75.4,1011.2,305.5,1.6,2.9,320.7,0.00,15.0,19.7,"23:23:52",1
"23/05/17","23:40",0.0,19.1,75.7,1011.2,325.2,0.6,1.6,320.9,0.00,14.8,19.4,"23:31:20",1
"23/05/17","23:50",0.0,18.9,76.5,1011.4,321.6,1.5,2.1,333.9,0.00,14.7,19.4,"23:46:00",1
"23/05/17","24:00",0.0,18.4,77.8,1010.9,347.7,0.6,1.3,337.2,0.00,14.5,19.3,"23:55:04",1
